GW1174 Weather Reports


time (UTC)temp
C
wind
direction
speed
KPH
gust
KPH
rain 1hr
cm
rain 24hr
cm
rain mn
cm
humidity
%
barometer
mb
20260507114517 11 270 9.7 16.1 0.00 0.71 0.05 87 1012.1
20260507113517 11 248 9.7 19.3 0.00 0.71 0.05 88 1012.0
20260507112518 11 203 8.0 16.1 0.00 0.71 0.05 89 1012.1
20260507111538 11 270 6.4 12.9 0.00 0.71 0.05 89 1012.0
20260507110517 11 270 6.4 12.9 0.00 0.71 0.05 90 1012.0
20260507105517 11 270 6.4 12.9 0.00 0.71 0.05 90 1012.0
20260507104518 11 270 4.8 12.9 0.00 0.71 0.05 90 1011.9
20260507103537 11 270 9.7 17.7 0.00 0.71 0.05 89 1011.8
20260507102537 11 315 8.0 14.5 0.00 0.71 0.05 90 1011.8
20260507101537 11 270 8.0 16.1 0.00 0.71 0.05 90 1011.7
20260507100517 11 225 9.7 17.7 0.00 0.71 0.05 91 1011.7
20260507095517 11 225 9.7 22.5 0.00 0.71 0.05 92 1011.6
20260507094517 11 248 4.8 14.5 0.03 0.71 0.05 93 1011.6
20260507093517 11 225 9.7 17.7 0.03 0.71 0.05 93 1011.5
20260507092517 11 225 8.0 16.1 0.03 0.71 0.05 93 1011.4
20260507091517 11 225 6.4 12.9 0.03 0.71 0.05 94 1011.3
20260507090517 10 225 9.7 17.7 0.03 0.71 0.05 94 1011.2
20260507085519 10 203 6.4 11.3 0.03 0.71 0.05 94 1011.0
20260507084517 10 203 6.4 14.5 0.00 0.69 0.05 94 1011.0
20260507083517 10 203 9.7 19.3 0.00 0.69 0.05 94 1010.7
20260507082517 10 203 8.0 14.5 0.00 0.69 0.05 94 1010.6
20260507081517 10 225 6.4 14.5 0.00 0.69 0.05 94 1010.4
20260507080517 10 225 6.4 9.7 0.03 0.69 0.05 94 1010.3
20260507075517 10 225 6.4 17.7 0.03 0.69 0.05 95 1010.3
20260507074517 10 225 6.4 11.3 0.03 0.69 0.05 95 1010.1
20260507073537 10 203 6.4 12.9 0.03 0.69 0.05 95 1010.0
20260507072517 10 203 9.7 14.5 0.03 0.69 0.05 95 1009.9
20260507071517 10 203 6.4 14.5 0.03 0.69 0.05 95 1009.8
20260507070517 9 203 8.0 14.5 0.00 0.66 0.03 95 1009.8
20260507065537 9 203 9.7 17.7 0.00 0.66 0.03 95 1009.9
20260507064517 9 203 8.0 14.5 0.00 0.66 0.03 95 1009.7
20260507063517 9 203 6.4 16.1 0.00 0.66 0.03 95 1009.6
20260507062517 9 180 9.7 16.1 0.00 0.66 0.03 95 1009.5
20260507061518 9 203 8.0 14.5 0.00 0.66 0.03 95 1009.5
20260507060517 9 203 4.8 9.7 0.00 0.66 0.03 95 1009.5
20260507055517 9 203 8.0 16.1 0.00 0.66 0.03 95 1009.4
20260507054516 9 203 4.8 9.7 0.00 0.66 0.03 95 1009.2
20260507053537 9 180 3.2 6.4 0.00 0.66 0.03 95 1009.2
20260507052536 9 225 6.4 9.7 0.00 0.66 0.03 95 1009.0
20260507051517 9 225 6.4 14.5 0.00 0.66 0.03 95 1008.8
20260507050517 9 225 6.4 14.5 0.00 0.66 0.03 95 1009.1
20260507045537 9 225 4.8 12.9 0.00 0.66 0.03 95 1008.9
20260507044537 9 180 3.2 8.0 0.00 0.66 0.03 95 1008.9
20260507043516 9 225 4.8 9.7 0.00 0.66 0.03 95 1008.9
20260507042536 9 225 4.8 9.7 0.00 0.66 0.03 95 1008.9
20260507041516 9 225 6.4 14.5 0.00 0.66 0.03 95 1008.8
20260507040516 9 248 6.4 12.9 0.00 0.66 0.03 95 1008.8
20260507035516 9 225 4.8 9.7 0.00 0.66 0.03 95 1008.8
20260507034539 9 203 6.4 14.5 0.00 0.66 0.03 95 1008.7
20260507033516 9 203 6.4 9.7 0.00 0.66 0.03 95 1008.6
20260507032516 9 225 6.4 12.9 0.00 0.66 0.03 95 1008.6
20260507031516 10 225 8.0 17.7 0.00 0.66 0.03 95 1008.5
20260507030516 10 203 6.4 14.5 0.00 0.66 0.03 95 1008.4
20260507025536 10 225 8.0 14.5 0.00 0.66 0.03 95 1008.3
20260507024516 10 225 4.8 9.7 0.00 0.66 0.03 95 1008.2
20260507023536 10 225 6.4 14.5 0.00 0.66 0.03 95 1008.2
20260507022516 10 248 4.8 8.0 0.00 0.66 0.03 95 1008.4
20260507021517 10 203 4.8 9.7 0.00 0.66 0.03 95 1008.2
20260507020516 10 248 3.2 9.7 0.00 0.66 0.03 95 1008.2
20260507015516 10 203 4.8 14.5 0.00 0.66 0.03 95 1008.3
20260507014516 10 203 6.4 11.3 0.00 0.66 0.03 95 1008.0
20260507013516 10 225 6.4 11.3 0.00 0.66 0.03 95 1008.0
20260507012536 10 203 6.4 9.7 0.00 0.66 0.03 95 1008.0
20260507011516 10 248 4.8 9.7 0.00 0.66 0.03 95 1008.0
20260507010516 10 225 8.0 17.7 0.00 0.66 0.03 95 1007.9
20260507005516 10 203 6.4 11.3 0.00 0.66 0.03 94 1007.9
20260507004516 10 225 4.8 11.3 0.00 0.66 0.03 94 1008.0
20260507003516 10 225 6.4 11.3 0.00 0.66 0.03 94 1007.9
20260507002516 10 203 6.4 11.3 0.00 0.66 0.03 94 1007.8
20260507001516 10 248 6.4 11.3 0.00 0.66 0.03 94 1008.0
20260507000516 10 158 3.2 8.0 0.00 0.66 0.03 94 1008.0
20260506235556 11 203 1.6 4.8 0.00 0.66 0.03 94 1007.9
20260506234516 10 158 1.6 3.2 0.00 0.66 0.03 94 1007.9
20260506233536 11 158 1.6 3.2 0.00 0.66 0.03 94 1008.1
20260506232516 11 203 1.6 6.4 0.00 0.66 0.03 94 1008.0
20260506231516 11 158 3.2 6.4 0.00 0.66 0.03 94 1008.0
20260506230516 11 180 3.2 4.8 0.03 0.69 0.03 94 1007.9
20260506225536 11 0.0 3.2 0.03 0.69 0.03 94 1007.7
20260506224516 11 225 1.6 8.0 0.03 0.69 0.03 94 1007.5
20260506223516 11 225 1.6 4.8 0.03 0.69 0.03 94 1007.6
20260506222516 11 158 3.2 6.4 0.03 0.69 0.03 94 1007.5
20260506221516 11 158 1.6 8.0 0.03 0.69 0.03 94 1007.4
20260506220536 11 158 1.6 3.2 0.00 0.66 0.00 94 1007.3
20260506215516 11 158 3.2 6.4 0.00 0.66 0.66 94 1007.4
20260506214517 11 158 1.6 4.8 0.00 0.66 0.66 94 1007.5
20260506213537 11 0.0 3.2 0.03 0.66 0.66 93 1007.3
20260506212516 11 180 1.6 3.2 0.05 0.66 0.66 93 1007.3
20260506211516 11 0.0 1.6 0.08 0.66 0.66 93 1007.0
20260506210516 11 0.0 1.6 0.15 0.66 0.66 93 1007.1
20260506205516 11 113 1.6 4.8 0.23 0.66 0.66 93 1007.0
20260506204516 11 113 1.6 4.8 0.28 0.66 0.66 93 1007.1
20260506203537 11 158 1.6 6.4 0.28 0.64 0.64 93 1006.9
20260506202516 11 113 3.2 4.8 0.30 0.61 0.61 93 1006.8
20260506201516 11 135 4.8 9.7 0.30 0.58 0.58 93 1006.7
20260506200517 12 158 6.4 12.9 0.25 0.51 0.51 93 1006.8
20260506195517 11 180 4.8 12.9 0.18 0.43 0.43 92 1006.7
20260506194516 11 158 3.2 8.0 0.13 0.38 0.38 92 1006.6
20260506193516 12 225 3.2 4.8 0.10 0.36 0.36 92 1006.3
20260506192536 12 135 1.6 4.8 0.05 0.33 0.33 92 1005.8
20260506191536 12 135 3.2 4.8 0.03 0.28 0.28 92 1005.9
20260506190516 12 158 4.8 8.0 0.00 0.25 0.25 91 1005.7
20260506185516 12 0.0 1.6 0.00 0.25 0.25 91 1005.3
20260506184536 12 0.0 0.0 0.00 0.25 0.25 91 1005.1
20260506183516 12 0.0 0.0 0.00 0.25 0.25 90 1004.9
20260506182536 12 0.0 1.6 0.03 0.25 0.25 90 1004.8
20260506181517 12 0.0 3.2 0.05 0.25 0.25 90 1004.5
20260506180519 12 0.0 0.0 0.10 0.25 0.25 89 1004.6
20260506175539 12 0.0 0.0 0.18 0.25 0.25 89 1004.4
20260506174536 12 0.0 0.0 0.23 0.25 0.25 88 1004.5
20260506173516 12 0.0 0.0 0.23 0.25 0.25 88 1004.6
20260506172516 13 0.0 0.0 0.23 0.53 0.23 87 1004.7
20260506171516 13 0.0 1.6 0.18 0.79 0.20 87 1004.5
20260506170516 13 270 3.2 11.3 0.15 1.04 0.15 85 1004.7
20260506165639 14 270 8.0 17.7 0.05 0.99 0.05 83 1004.7
20260506164516 15 293 4.8 12.9 0.00 0.94 0.03 79 1004.4
20260506163516 16 315 6.4 14.5 0.00 0.94 0.03 74 1004.2
20260506162516 16 0.0 6.4 0.00 0.94 0.03 72 1004.2
20260506161516 16 315 1.6 8.0 0.00 0.94 0.03 71 1004.2
20260506160516 17 293 1.6 8.0 0.00 0.94 0.03 70 1004.4
20260506155516 17 0.0 3.2 0.00 0.94 0.03 69 1004.4
20260506154516 17 0.0 3.2 0.00 0.94 0.03 70 1004.5
20260506153516 17 0.0 0.0 0.00 0.94 0.03 66 1004.5
20260506152516 18 0.0 3.2 0.00 0.94 0.03 66 1004.7
20260506151516 18 0.0 0.0 0.00 0.94 0.03 68 1004.5
20260506150516 18 0.0 0.0 0.00 0.94 0.03 65 1004.5
20260506145515 18 270 1.6 6.4 0.00 0.94 0.03 66 1004.7
20260506144516 18 0.0 0.0 0.00 0.94 0.03 68 1004.7
20260506143515 18 0.0 1.6 0.00 0.94 0.03 66 1004.7
20260506142516 18 0.0 3.2 0.00 0.94 0.03 65 1004.8
20260506141516 18 135 1.6 8.0 0.00 0.94 0.03 66 1004.8
20260506140515 18 158 1.6 6.4 0.00 0.94 0.03 66 1004.7
20260506135515 18 225 3.2 6.4 0.00 0.94 0.03 65 1004.9
20260506134515 17 0.0 0.0 0.00 0.94 0.03 68 1004.9
20260506133536 17 0.0 1.6 0.00 0.94 0.03 67 1005.0
20260506132518 17 0.0 1.6 0.00 0.94 0.03 70 1005.1
20260506131518 17 0.0 1.6 0.00 0.94 0.03 71 1005.3
20260506130517 16 0.0 4.8 0.00 0.94 0.03 70 1005.2
20260506125537 16 135 1.6 4.8 0.00 0.94 0.03 71 1005.2
20260506124558 16 135 1.6 4.8 0.00 0.94 0.03 68 1005.4
20260506123517 17 0.0 3.2 0.00 0.94 0.03 69 1005.4
20260506122517 17 0.0 4.8 0.00 0.94 0.03 70 1005.5
20260506121517 17 158 1.6 4.8 0.00 0.94 0.03 68 1005.4
20260506120517 17 180 1.6 9.7 0.00 0.94 0.03 68 1005.4
20260506115558 17 158 4.8 11.3 0.00 0.94 0.03 69 1005.5